Overview Statistics Trail Chart Weather Telemetry Raw packets
 

This is the latest recevied weather packets stored in our database for station/object DC9VQ-13. If no packets are shown the sender has not sent any weather packets the latest 10 day(s).

<< 23 24 25 26 27 28 29 >>
Time Temp. Humidity Pressure Rain* Wind** Luminosity Snow
1788282719 25.56° C 44% 1020.4 hPa 0 mm - - -
1788282127 25.56° C 44% 1020.3 hPa 0 mm - - -
1788281515 26.11° C 44% 1020.3 hPa 0 mm - - -
1788280913 25.56° C 47% 1020.3 hPa 0 mm - - -
1788280312 25.56° C 48% 1020.4 hPa 0 mm - - -
1788279709 25° C 48% 1020.4 hPa 0 mm - - -
1788279118 24.44° C 49% 1020.3 hPa 0 mm - - -
1788278506 24.44° C 47% 1020.4 hPa 0 mm - - -
1788277906 25° C 47% 1020.4 hPa 0 mm - - -
1788277302 25° C 46% 1020.4 hPa 0 mm - - -
1788276709 25° C 48% 1020.4 hPa 0 mm - - -
1788276096 25° C 48% 1020.4 hPa 0 mm - - -
1788274923 25.56° C 50% 1020.4 hPa 0 mm - - -
1788272907 24.44° C 50% 1020.4 hPa 0 mm - - -
1788272274 23.89° C 56% 1020.4 hPa 0 mm - - -
1788271582 23.33° C 59% 1020.5 hPa 0 mm - - -
1788270980 22.78° C 61% 1020.7 hPa 0 mm - - -
1788270377 22.78° C 60% 1020.7 hPa 0 mm - - -
1788269776 22.78° C 63% 1020.7 hPa 0 mm - - -
1788269174 22.78° C 60% 1020.8 hPa 0 mm - - -
1788268572 22.78° C 61% 1020.9 hPa 0 mm - - -
1788267970 22.78° C 59% 1021 hPa 0 mm - - -
1788267368 22.78° C 62% 1021 hPa 0 mm - - -
1788266765 22.78° C 63% 1021.1 hPa 0 mm - - -
1788266164 23.33° C 59% 1021.1 hPa 0 mm - - -

* Rain latest hour (hover to see other rain measurements)
** Current wind speed in m/s (hover to see current wind gust speed)